Home > Weather > Xiamen > Past weeks

Flag for China Weather for the Past 2 Weeks in Xiamen, Fujian, China

Now
48 °F

Mostly cloudy.


Feels Like: 42 °F
Forecast: 48 / 59 °F
Wind: 15 mph from East

Location: Xiamen Airport

Current Time: Feb 15, 2016 at 8:27:57 AM

Latest Report: Feb 15, 2016 at 7:00 AM


Visibility: N/A

Pressure: 30.30 "Hg

Humidity: 82%

Dew point: 43 °F

Location of XiamenLocation

Historic Weather in Xiamen — Graph

°F

Xiamen Temperature Yesterday

Maximum temperature yesterday: 66 °F (at 10:00 AM)
Minimum temperature yesterday: 50 °F (at 11:00 PM)
Average temperature yesterday: 59 °F

High & Low Weather Summary for the Past Weeks

 TemperatureHumidityPressure
High77 °F (Feb 13, 1:00 PM)100% (Feb 1, 2:00 AM)30.39 "Hg (Feb 1, 2:00 AM)
Low41 °F (Feb 7, 7:00 AM)15% (Feb 9, 3:00 PM)29.86 "Hg (Feb 13, 2:00 PM)
Average56 °F79%30.16 "Hg
* Reported Jan 31 7:00 AM — Feb 15 7:00 AM, Xiamen, Weather by CustomWeather, © 2016

Note: Actual official high and low records may vary slightly from our data, if they occured in-between our weather recording intervals... More about our weather records

Advertising

Xiamen Weather History for the Previous 24 Hours

 ConditionsComfort  
Time TempWeatherWind HumidityBarometerVisibility
7:00 AM
Mon, Feb 15
48 °FMostly cloudy.15 mph82%30.30 "HgN/A
6:00 AM48 °FMostly cloudy.15 mph87%30.30 "HgN/A
5:00 AM48 °FMostly cloudy.15 mph87%30.30 "HgN/A
4:00 AM48 °FMostly cloudy.15 mph87%30.27 "HgN/A
3:00 AM48 °FMostly cloudy.15 mph94%30.27 "HgN/A
2:00 AM50 °FMostly cloudy.15 mph88%30.24 "HgN/A
1:00 AM50 °FMostly cloudy.17 mph88%30.27 "HgN/A
12:00 AM50 °FMostly cloudy.17 mph94%30.27 "HgN/A
11:00 PM
Sun, Feb 14
50 °FMostly cloudy.17 mph94%30.24 "HgN/A
10:00 PM52 °FOvercast.15 mph94%30.24 "HgN/A
9:00 PM52 °FOvercast.15 mph94%30.21 "HgN/A
8:00 PM52 °FOvercast.20 mph94%30.15 "HgN/A
7:00 PM52 °FOvercast.15 mph100%30.12 "HgN/A
6:00 PM54 °FLight rain. Mostly cloudy.13 mph100%30.09 "Hg6 mi
5:00 PM54 °FLight rain. Mostly cloudy.13 mph100%30.07 "Hg4 mi
4:00 PM54 °FLight rain. Fog.15 mph100%30.04 "Hg2 mi
3:00 PM55 °FLight rain. Fog.15 mph100%30.01 "Hg3 mi
2:00 PM55 °FRain. Fog.13 mph100%30.01 "Hg2 mi
1:00 PM57 °FRain. Fog.17 mph100%30.01 "Hg2 mi
12:00 PM61 °FLight rain. Fog.10 mph100%30.01 "Hg1 mi
11:00 AM66 °FFog.10 mph100%30.01 "Hg1 mi
10:00 AM66 °FFog.8 mph100%30.01 "Hg2 mi
9:00 AM64 °FFog.3 mph100%29.98 "Hg1 mi
8:00 AM63 °FFog.3 mph100%29.95 "Hg1 mi
Weather by CustomWeather, © 2016

See weather overviewHow to use our weather pages